TimeCST,TemperatureF,Dew PointF,Humidity,Sea Level PressureIn,VisibilityMPH,Wind Direction,Wind SpeedMPH,Gust SpeedMPH,PrecipitationIn,Events,Conditions,WindDirDegrees,DateUTC
12:26 AM,35.6,32.0,87,29.73,10.0,NNW,21.9,31.1,N/A,,Overcast,330,2013-02-26 06:26:00
12:52 AM,35.6,30.2,81,29.74,10.0,NNW,21.9,33.4,N/A,,Overcast,330,2013-02-26 06:52:00
12:55 AM,35.6,30.9,83,29.74,10.0,NNW,21.9,33.4,0.00,,Overcast,330,2013-02-26 06:55:00
1:17 AM,35.6,30.2,81,29.74,10.0,NNW,24.2,34.5,N/A,,Overcast,330,2013-02-26 07:17:00
1:46 AM,35.6,30.2,81,29.75,10.0,NW,21.9,29.9,N/A,,Overcast,320,2013-02-26 07:46:00
1:54 AM,35.6,30.2,81,29.75,10.0,NW,19.6,31.1,N/A,,Overcast,320,2013-02-26 07:54:00
1:55 AM,36.0,30.9,82,29.75,10.0,NNW,20.7,31.1,N/A,,Overcast,330,2013-02-26 07:55:00
2:55 AM,36.0,31.1,82,29.75,10.0,NNW,17.3,25.3,N/A,,Overcast,330,2013-02-26 08:55:00
3:55 AM,35.6,30.9,83,29.77,10.0,NW,16.1,21.9,N/A,,Overcast,320,2013-02-26 09:55:00
4:55 AM,35.2,30.7,84,29.76,10.0,NNW,18.4,25.3,N/A,,Overcast,330,2013-02-26 10:55:00
5:55 AM,35.2,30.4,82,29.80,10.0,NW,17.3,26.5,N/A,,Overcast,320,2013-02-26 11:55:00
6:23 AM,33.8,30.2,87,29.81,10.0,NNW,13.8,-,N/A,,Scattered Clouds,330,2013-02-26 12:23:00
6:55 AM,33.4,28.6,82,29.82,10.0,NNW,16.1,24.2,N/A,,Clear,330,2013-02-26 12:55:00
7:55 AM,34.3,28.6,79,29.83,10.0,NNW,13.8,19.6,N/A,,Clear,330,2013-02-26 13:55:00
8:55 AM,36.5,28.8,74,29.85,10.0,NNW,13.8,18.4,N/A,,Clear,340,2013-02-26 14:55:00
9:55 AM,40.3,29.8,66,29.86,10.0,NNW,13.8,-,N/A,,Clear,330,2013-02-26 15:55:00
10:55 AM,43.0,29.3,59,29.88,10.0,NNW,13.8,19.6,N/A,,Clear,330,2013-02-26 16:55:00
11:55 AM,43.3,30.0,59,29.89,10.0,NW,11.5,-,N/A,,Clear,310,2013-02-26 17:55:00
12:55 PM,45.7,30.6,56,29.87,10.0,NNW,12.7,-,N/A,,Clear,330,2013-02-26 18:55:00
1:55 PM,48.6,30.4,50,29.84,10.0,NW,9.2,-,N/A,,Clear,320,2013-02-26 19:55:00
2:55 PM,49.1,30.0,48,29.83,10.0,NNE,9.2,-,N/A,,Clear,20,2013-02-26 20:55:00
3:55 PM,49.6,30.9,49,29.83,10.0,NW,8.1,-,N/A,,Clear,310,2013-02-26 21:55:00
4:55 PM,49.3,31.6,51,29.83,10.0,NW,5.8,-,N/A,,Clear,320,2013-02-26 22:55:00
5:55 PM,47.7,32.4,55,29.83,10.0,North,4.6,-,N/A,,Clear,350,2013-02-26 23:55:00
6:55 PM,41.7,33.3,72,29.87,10.0,North,10.4,-,N/A,,Clear,360,2013-02-27 00:55:00
7:55 PM,38.7,32.2,78,29.88,10.0,North,9.2,-,N/A,,Clear,10,2013-02-27 01:55:00
8:55 PM,36.0,30.4,80,29.91,10.0,North,12.7,-,N/A,,Clear,10,2013-02-27 02:55:00
9:55 PM,36.0,29.1,76,29.93,10.0,North,10.4,-,N/A,,Mostly Cloudy,10,2013-02-27 03:55:00
10:55 PM,36.0,29.7,78,29.93,10.0,North,10.4,-,N/A,,Overcast,10,2013-02-27 04:55:00
11:55 PM,35.8,28.6,75,29.91,10.0,North,12.7,-,N/A,,Scattered Clouds,10,2013-02-27 05:55:00